Location: Branche des Alpilles
(43.6087°N, 4.6976°E)
Time: 10:19:45
(UTC+00:00)

FENGYUN 1C DEB - Pass Details

Date: 27 June 2021
Orbit: 782 x 878 km, 99.7° (Epoch: 28 July)

Event Time Altitude Azimuth Distance (km) Brightness Sun altitude
Exits shadow 01:41:27 28° 183° (S) 1,459 ? -17.9°
Maximum altitude 01:44:11 65° 256° (WSW) 876 ? -17.6°
Drops below altitude 10° 01:49:20 10° 339° (NNW) 2,356 ? -17.2°
Sets 01:51:40 0° 342° (NNW) 3,284 ? -17.0°
